Wind_Speed
110 110 109 107 106 106 107 107 107 106 104 102 100 100 101 101 100 100 100 100 99 97 95 95 96 97 97 97 98 99 101 101 102 102 102 102 103 104 105 106 106 106 106 106 107 107 108 108 109 110 111 112 112 112 112 112 112 112 111 111 111 111 111 112 112 113 113 113 113 113 114 115 116 116 117 117 118 119 119 120 121 121 122 121 121
112 112 112 111 109 108 108 109 109 109 108 108 107 107 106 106 107 107 107 106 104 102 100 99 99 101 102 102 102 103 104 105 106 106 106 106 107 108 110 110 111 111 112 112 112 113 113 113 114 114 115 115 115 116 115 115 115 114 113 112 111 111 110 110 110 110 110 111 111 111 111 112 112 114 115 115 116 118 119 121 122 122 121 120 119
115 115 115 114 113 112 111 111 112 112 112 113 113 113 112 111 111 111 111 111 109 107 105 105 105 105 105 105 106 107 108 109 110 111 111 112 113 114 114 115 115 116 116 116 117 117 117 118 118 118 118 118 118 118 118 117 116 115 113 112 110 108 107 106 105 105 106 107 109 110 111 111 113 114 116 116 118 119 120 120 120 120 119 118 117
116 117 117 117 117 116 115 115 116 116 116 116 116 116 115 115 114 114 114 114 113 112 111 111 111 111 110 110 110 111 113 114 115 115 116 117 117 118 118 119 119 120 120 120 120 120 120 120 121 121 121 121 120 120 118 116 114 112 110 108 106 104 103 102 102 102 103 105 107 109 111 113 114 116 117 118 118 118 117 117 116 116 116 116 116
115 116 117 118 118 118 118 118 119 120 120 120 120 119 118 117 117 117 117 116 116 116 115 115 115 115 115 115 115 115 116 117 118 119 119 120 120 120 121 121 122 122 123 122 122 122 122 122 122 122 122 121 120 119 117 114 110 107 105 103 102 102 102 103 104 105 105 106 108 109 111 112 114 115 117 117 116 115 114 113 113 113 113 114 115
112 113 115 116 117 118 119 120 121 121 122 121 121 121 120 119 119 119 119 120 119 119 118 118 118 118 119 119 119 118 119 119 120 121 121 122 122 123 123 123 123 124 124 124 123 123 122 122 122 121 121 120 119 118 115 111 108 105 103 102 103 104 106 108 109 109 110 110 110 111 113 114 115 115 116 115 113 112 112 111 112 112 112 113 114
108 109 110 111 113 115 117 119 121 122 122 122 121 121 120 120 120 120 121 122 122 122 121 121 121 121 122 122 122 121 120 120 121 122 123 123 124 125 125 125 124 125 125 125 124 123 122 122 121 121 121 120 117 115 112 109 108 106 105 105 107 109 111 112 112 112 112 112 112 113 113 114 114 114 113 112 111 111 111 110 110 111 112 113 113
106 105 106 107 109 112 114 117 118 119 119 119 119 119 118 118 118 119 119 121 122 122 123 123 123 123 123 123 123 122 122 122 122 123 124 124 125 125 125 125 125 125 125 125 125 124 123 122 121 121 120 117 114 112 110 109 109 108 107 108 110 112 113 113 113 112 110 109 109 109 109 110 110 110 110 110 109 110 110 109 108 108 109 109 109
106 104 104 104 106 109 111 113 114 114 113 113 113 114 115 116 117 117 118 119 120 120 121 121 121 122 122 122 122 123 123 123 124 124 125 125 125 124 124 124 125 125 126 126 126 125 124 123 122 120 117 114 111 110 109 109 108 107 107 109 111 112 111 111 110 108 106 105 105 105 105 106 106 107 107 107 107 107 108 107 106 105 104 102 101
106 105 103 102 103 106 108 110 111 110 109 108 107 108 109 111 114 115 116 117 118 119 119 120 120 120 121 122 122 122 123 123 124 124 125 125 125 125 124 124 124 125 126 126 126 126 126 125 122 119 115 113 111 110 109 108 107 107 108 109 110 110 108 107 105 104 103 102 102 102 102 102 103 104 104 104 104 103 103 102 100 99 97 95 94
104 104 103 101 100 101 104 106 107 107 106 105 105 105 105 106 108 110 112 114 115 117 118 119 119 120 121 122 123 123 123 124 124 125 126 126 126 126 125 125 126 126 127 127 128 128 128 126 122 118 115 114 113 112 110 109 108 108 109 108 108 106 104 103 102 101 100 100 99 100 99 99 99 100 99 98 98 97 96 95 94 93 92 91 90
103 103 103 101 99 99 100 102 103 104 104 104 104 104 104 104 104 105 107 109 111 113 115 116 117 118 120 121 123 124 124 125 125 126 127 128 128 128 127 127 127 127 127 127 127 127 125 123 121 119 117 115 113 112 111 110 110 109 108 106 105 103 102 101 101 100 98 97 97 97 97 97 96 96 95 94 93 92 91 91 92 91 90 89 89
104 104 104 103 101 100 99 100 101 101 102 102 102 103 103 103 103 103 104 105 106 107 109 110 112 114 116 118 120 122 123 124 125 126 127 128 128 127 126 125 124 122 121 120 119 119 118 118 118 118 117 115 113 112 112 111 111 109 107 105 103 102 101 101 100 99 97 97 97 97 97 96 95 94 94 92 91 90 90 90 91 91 90 90 90
105 105 105 105 103 102 101 101 101 101 101 101 102 102 102 103 102 102 103 103 104 104 104 105 106 108 110 112 113 115 116 117 117 118 119 119 119 119 118 117 116 114 113 113 112 113 114 115 116 116 115 114 113 113 113 112 111 109 106 104 103 103 102 100 99 98 98 98 97 97 97 96 95 94 93 91 90 90 89 90 90 90 89 89 91
105 105 106 106 105 105 104 103 103 103 103 102 102 102 102 103 103 102 102 102 103 104 104 104 105 105 107 108 109 110 110 109 109 110 110 110 109 109 109 109 109 108 108 108 110 113 115 115 115 114 112 112 114 115 116 115 112 108 105 104 104 104 102 101 100 99 99 99 99 98 97 96 96 95 93 92 91 91 90 90 90 90 88 88 89
103 105 105 106 106 106 106 106 106 106 105 104 104 104 104 105 105 104 103 103 103 104 104 105 106 107 108 109 110 110 110 109 108 108 108 108 107 106 106 107 106 106 107 109 113 116 117 116 114 113 113 114 117 119 119 116 112 108 106 106 105 104 102 101 100 101 101 101 100 99 98 98 98 96 94 93 92 91 91 91 91 90 88 86 87
100 103 104 105 106 107 108 109 110 110 108 107 106 106 106 107 107 107 106 106 106 106 106 108 109 110 111 111 112 113 112 111 110 110 109 109 108 107 108 108 109 110 112 116 119 120 120 118 116 116 116 118 120 120 118 115 112 109 108 107 105 104 103 101 102 103 104 103 102 101 101 101 100 98 96 95 94 93 92 91 91 90 88 86 85
97 99 102 103 105 106 108 109 111 112 111 109 108 107 107 108 108 109 109 109 109 109 109 110 111 112 113 113 114 114 113 111 111 111 111 111 110 109 110 112 114 117 120 122 123 123 122 120 118 119 120 121 121 119 117 114 112 110 109 108 107 105 104 103 104 105 105 104 103 103 103 103 102 101 99 97 96 95 93 91 90 88 87 85 84
95 96 98 100 103 105 107 109 111 112 112 111 109 107 107 108 109 109 110 110 111 111 112 113 114 114 115 115 114 114 114 113 113 113 113 114 113 113 115 117 120 123 125 126 126 125 123 121 120 121 122 121 119 117 116 114 112 111 110 109 108 107 106 107 107 107 106 104 104 104 104 104 103 102 101 99 98 95 93 91 89 87 85 83 82
94 95 95 97 101 103 106 107 109 111 112 111 110 108 107 108 108 109 110 111 111 112 114 115 116 116 116 116 115 115 116 116 117 117 117 118 117 118 120 123 125 128 129 129 128 125 123 122 121 122 122 121 118 115 113 112 112 111 111 111 109 108 109 110 110 108 106 106 106 106 105 104 103 102 101 100 97 95 93 91 88 86 83 81 79
94 94 94 96 98 101 104 105 107 108 110 111 110 108 107 107 108 108 109 110 110 111 112 114 115 116 116 116 116 116 117 119 119 120 120 120 120 121 123 125 128 130 130 130 128 125 123 122 121 121 121 119 117 114 112 111 111 111 112 112 111 110 111 112 111 109 107 107 107 106 104 103 102 102 101 99 97 95 93 90 88 86 83 81 78
95 94 94 96 98 100 102 104 105 107 108 110 110 109 108 107 107 107 108 108 108 109 110 112 114 115 115 116 116 117 117 118 120 121 121 121 121 122 124 126 128 130 130 128 126 123 121 119 118 118 117 116 116 114 113 111 110 111 112 113 112 112 113 113 112 110 108 107 106 105 103 102 102 101 99 98 97 95 92 89 88 87 85 81 79
97 96 96 97 98 99 101 103 104 106 107 109 110 110 110 108 107 107 107 107 107 107 108 109 111 113 115 116 116 116 116 117 118 119 120 120 120 120 121 123 125 127 126 124 122 120 117 115 114 114 114 115 115 114 113 111 110 111 112 112 113 113 113 113 111 109 108 106 104 103 103 102 101 100 98 97 96 95 92 89 88 87 85 82 80
98 97 97 98 98 99 100 102 103 105 107 109 110 111 111 110 109 108 108 107 107 107 108 109 110 111 113 114 114 113 113 113 114 115 115 115 114 114 115 117 119 121 121 119 117 115 112 111 112 113 114 114 114 113 112 112 111 111 111 112 113 113 112 111 110 108 106 105 104 103 103 102 100 99 98 97 97 95 91 89 88 87 85 82 81
98 98 99 99 99 99 100 101 103 105 107 109 110 111 112 112 111 110 109 108 108 108 108 109 109 110 111 111 111 111 111 111 111 112 111 111 110 109 110 111 113 116 116 114 112 111 111 111 113 114 114 113 113 113 113 112 111 111 111 112 112 112 111 109 108 107 105 104 104 103 102 101 99 98 98 98 97 94 91 89 88 86 85 83 83
97 98 99 100 100 100 100 100 102 104 106 108 110 111 111 112 111 111 110 110 109 109 109 109 110 111 111 111 112 112 111 111 111 111 111 110 109 107 107 109 111 112 112 110 110 110 111 112 113 114 113 113 113 113 113 112 112 112 112 112 112 111 109 108 107 106 105 105 104 103 101 100 99 99 98 97 96 93 90 88 88 87 87 85 85
94 95 97 99 100 100 100 100 101 103 105 106 108 109 110 110 111 111 111 111 111 111 110 110 110 111 112 112 112 112 112 112 112 112 112 110 109 108 108 108 109 110 110 109 110 111 112 114 114 114 113 113 113 113 113 112 112 112 112 112 110 109 108 107 107 106 106 105 104 102 100 100 100 99 98 96 95 92 89 88 88 88 88 87 86
92 92 94 96 97 98 98 99 100 101 103 104 105 106 107 108 110 110 110 110 110 111 110 110 110 111 111 111 111 111 111 111 111 112 112 112 111 110 109 108 108 108 109 110 111 112 113 114 114 113 112 112 112 112 112 112 112 112 111 111 110 109 108 107 107 107 106 105 103 102 101 101 100 98 97 96 94 92 90 89 89 88 88 87 85
89 89 90 92 93 94 95 96 97 98 99 101 103 104 105 107 108 108 108 109 109 109 109 109 110 110 111 110 109 109 109 109 111 112 112 112 111 110 109 107 107 107 109 110 110 112 113 113 113 112 112 112 111 111 111 111 111 111 111 111 110 109 108 108 107 107 106 105 104 103 103 102 100 98 97 96 96 95 93 91 90 89 88 86 84
86 86 87 88 90 91 91 92 93 94 95 97 99 100 102 104 105 106 107 107 107 107 107 108 109 110 109 109 108 107 107 108 109 110 110 111 111 110 109 108 107 107 108 109 110 111 111 112 112 112 112 111 111 110 110 110 111 111 112 112 111 110 109 108 108 107 106 106 105 105 105 104 102 100 99 98 98 98 95 93 91 89 87 85 83
84 83 84 85 87 88 88 88 89 90 91 92 94 95 96 98 100 102 103 105 105 104 105 106 107 108 107 107 106 106 106 106 107 107 108 109 110 110 110 109 108 107 107 107 108 109 110 110 111 111 111 110 109 109 110 111 112 113 113 113 111 110 110 109 109 108 107 107 107 107 106 105 104 103 101 101 100 99 96 93 90 88 86 84 82
83 81 82 83 84 85 85 85 86 87 89 90 90 90 91 92 94 96 98 100 100 101 102 103 105 105 105 105 105 105 105 105 106 107 107 108 109 110 110 110 109 108 107 106 106 107 107 108 109 110 110 109 109 110 111 113 113 114 113 113 112 112 111 111 110 109 109 108 108 108 107 106 105 103 102 101 99 97 95 92 89 86 85 83 82
81 79 80 81 81 81 82 83 83 85 87 88 89 89 89 89 91 92 94 96 96 97 99 101 102 103 104 105 106 106 106 105 106 107 107 107 108 109 109 110 109 108 107 106 106 106 106 106 108 109 110 111 112 112 113 114 114 114 114 114 113 113 112 112 111 110 109 109 108 108 106 105 103 102 101 100 98 96 93 90 86 85 84 83 82
78 77 78 79 79 78 78 79 80 82 84 86 88 88 88 88 89 90 92 93 93 95 96 99 100 102 103 105 106 106 106 106 107 108 109 109 109 109 109 109 109 107 106 105 105 106 106 106 108 109 111 113 113 114 114 114 114 114 114 114 114 113 113 112 112 111 110 110 108 107 106 104 102 101 100 99 97 94 90 87 84 83 83 82 81
76 76 76 77 77 76 76 76 77 78 80 82 85 87 87 88 88 88 89 90 92 93 94 96 99 100 102 104 105 106 106 106 107 109 110 110 110 110 109 109 108 107 106 105 106 106 107 108 109 111 112 113 114 114 115 115 115 115 114 114 114 113 113 113 112 112 111 109 108 106 105 104 103 101 99 96 93 89 87 85 83 83 83 82 81
74 74 75 76 75 74 74 75 75 75 76 78 81 83 85 86 87 87 87 88 90 91 92 94 96 99 100 101 102 103 104 105 106 109 111 111 110 110 108 107 107 106 105 105 106 107 109 110 111 112 113 113 114 114 114 114 114 114 114 113 113 113 113 113 113 112 111 109 108 107 105 103 101 99 95 92 89 86 85 84 83 83 83 81 80
73 72 73 74 73 72 72 73 74 74 73 74 76 78 80 83 85 86 85 86 87 89 91 93 95 96 98 98 99 100 101 102 104 107 110 111 110 108 107 105 105 104 104 104 106 108 110 111 111 111 112 112 113 113 113 113 113 112 112 112 113 113 113 113 112 112 111 109 108 106 104 101 98 95 92 89 86 85 84 84 83 82 82 81 80
73 72 72 71 71 70 70 71 73 73 72 72 74 76 78 79 82 83 84 84 84 85 87 90 92 94 95 96 97 97 98 99 100 103 106 108 107 106 105 104 103 103 103 104 106 108 109 109 109 109 110 111 112 112 111 111 111 111 111 111 112 112 112 112 111 110 109 107 105 103 101 98 95 92 90 87 85 84 84 83 83 81 80 80 80
73 73 72 71 70 69 68 69 70 71 71 72 74 76 77 77 78 80 81 82 82 82 83 86 88 90 92 93 94 94 94 95 96 98 101 103 104 103 102 101 101 101 101 103 105 106 106 106 106 107 108 109 109 109 109 108 108 109 109 110 110 111 110 109 108 107 105 103 101 100 98 96 94 91 88 86 84 83 82 82 81 81 79 78 78
73 73 73 72 71 70 68 67 68 69 69 71 73 75 75 75 75 76 77 78 79 79 80 81 83 86 88 90 91 91 91 91 92 94 97 98 99 99 98 98 98 99 99 101 102 103 103 103 103 104 105 106 106 106 106 106 106 107 107 108 108 107 106 105 104 102 101 100 99 98 96 94 92 90 87 85 83 81 80 80 80 80 79 77 76
72 72 72 72 72 71 70 69 68 67 68 69 70 72 72 73 73 73 74 74 75 76 76 77 79 81 84 86 88 88 88 88 89 90 92 93 94 95 95 95 96 97 98 98 98 97 98 98 99 100 101 102 103 103 103 104 104 104 105 105 104 103 103 101 100 99 98 97 97 96 94 93 90 88 85 83 81 79 79 79 78 78 77 76 75
70 71 71 70 70 70 70 70 69 67 67 68 68 69 70 71 71 71 71 71 72 72 73 74 75 77 79 81 83 85 85 85 85 86 88 90 92 93 93 93 93 94 95 95 94 94 94 95 96 97 98 99 100 101 101 102 102 102 102 102 101 100 99 98 97 96 96 96 95 94 93 91 88 85 82 80 79 78 78 77 77 76 75 74 75
67 68 69 68 68 68 68 68 68 68 67 67 67 68 68 69 69 70 70 70 70 70 70 71 72 74 75 77 79 80 81 82 84 85 87 88 90 90 90 90 90 91 91 92 92 92 92 93 94 95 96 97 97 98 99 99 99 100 99 99 98 97 96 96 95 95 95 95 94 93 91 88 85 82 80 78 77 77 76 75 75 74 74 74 75
63 64 65 65 65 65 65 65 65 66 66 66 66 66 67 67 68 68 69 69 69 69 70 70 71 72 73 74 75 76 78 80 83 84 85 86 87 88 88 88 88 89 89 90 90 90 91 91 92 93 94 95 96 97 97 98 98 97 97 97 96 96 95 95 95 94 94 93 92 90 88 86 82 80 78 77 75 74 74 74 74 73 73 73 73
59 60 61 61 61 62 62 62 62 63 64 64 65 65 66 66 67 67 68 69 69 70 70 70 71 72 72 73 74 75 76 79 80 82 83 84 85 86 86 86 86 87 88 88 88 89 89 90 91 92 93 95 95 96 96 96 96 96 96 96 95 95 94 93 93 92 91 89 89 87 85 83 80 78 76 74 73 72 72 72 72 72 71 71 71
55 57 57 58 58 58 58 59 60 60 61 62 62 63 64 64 65 66 67 68 68 69 70 71 72 73 73 74 74 75 76 77 78 79 81 82 83 83 84 84 85 85 86 87 87 88 89 90 91 92 93 94 95 95 95 95 95 95 95 94 93 92 91 90 89 88 87 85 84 83 82 79 77 76 74 72 71 70 70 70 70 70 69 69 70
53 54 55 55 55 55 56 56 57 58 58 59 59 60 61 62 63 63 64 66 67 68 69 71 72 72 73 74 74 74 75 75 76 78 79 80 81 81 82 83 84 84 85 86 87 88 89 90 91 92 93 93 93 94 94 93 93 92 92 91 90 89 88 87 86 85 84 82 80 79 78 77 76 74 73 71 71 70 69 69 69 68 68 68 68
51 52 53 54 54 54 54 54 54 55 56 56 57 58 58 59 60 61 62 64 65 67 68 70 71 71 72 73 73 74 75 75 76 77 78 79 80 81 82 83 84 84 85 86 87 88 89 90 91 92 92 92 92 92 91 91 90 89 88 87 87 86 85 84 83 82 80 79 77 76 76 75 74 73 73 72 71 70 69 69 68 68 67 67 67
50 51 51 52 53 53 53 53 53 53 54 54 55 56 56 57 58 59 61 62 64 65 67 68 69 71 72 73 73 74 76 76 77 78 79 80 81 82 83 84 84 85 86 86 87 87 88 89 89 89 90 89 89 89 88 87 86 86 85 84 84 84 83 81 80 78 77 76 76 75 75 75 74 73 73 73 71 70 69 69 68 67 66 65 64
48 49 49 50 50 51 51 51 51 52 52 53 54 54 55 55 56 57 59 60 61 63 64 66 67 69 70 72 73 74 75 76 77 77 78 79 80 81 81 82 82 83 83 84 84 84 85 85 85 85 86 85 85 85 84 84 84 83 83 82 81 80 79 78 76 75 75 75 75 76 75 74 74 74 73 72 71 70 69 68 66 64 63 61 60
45 46 47 47 48 49 49 50 50 50 51 51 52 53 54 54 55 56 57 58 59 61 62 63 65 66 68 69 70 71 72 72 73 74 74 75 76 76 77 77 78 78 79 80 80 80 81 81 82 82 82 82 82 82 82 82 81 81 80 79 78 77 76 75 75 74 75 75 76 76 75 74 74 73 73 72 71 69 68 66 64 61 60 58 57
Wind_Direction
260 261 262 262 263 264 265 266 267 267 267 267 267 266 265 264 264 264 265 266 266 266 266 266 266 266 266 266 267 267 268 269 269 269 269 270 270 271 271 271 271 271 271 271 271 271 272 273 274 275 276 276 277 277 277 277 277 277 277 278 278 278 278 279 279 280 281 281 281 282 282 282 283 283 284 284 285 285 285 285 286 287 287 287 287
258 259 260 261 262 262 263 264 265 265 266 266 266 266 265 264 263 263 264 265 265 265 265 264 264 264 264 265 266 266 267 268 268 269 269 270 270 271 271 272 272 271 271 271 271 272 272 273 274 275 276 277 277 277 278 278 278 278 279 279 279 279 279 279 279 280 280 280 280 280 280 281 281 282 282 282 282 283 283 284 285 286 286 285 285
255 256 258 259 260 260 261 261 261 262 263 264 265 265 265 264 263 263 263 264 264 264 264 264 263 263 263 264 264 264 265 266 267 267 268 269 270 271 271 272 272 272 272 272 272 272 273 273 274 275 276 277 277 278 279 279 279 279 279 279 279 278 279 279 279 279 279 279 279 279 279 279 279 280 280 280 281 281 282 283 284 284 284 284 284
253 254 255 257 258 258 258 258 259 260 260 261 262 263 264 264 264 263 262 262 263 264 264 264 264 264 264 264 264 263 264 264 265 266 267 268 269 270 270 271 272 272 273 273 273 273 273 274 274 275 276 277 278 279 279 280 280 279 279 279 278 278 278 278 278 278 278 278 278 278 278 278 278 279 280 280 280 281 281 282 282 282 282 282 282
255 254 254 255 256 257 257 257 257 258 258 259 260 261 262 262 262 262 262 261 261 262 263 263 264 264 264 264 264 264 263 264 265 266 267 268 269 269 270 271 271 272 272 273 273 274 274 274 275 275 276 278 279 279 280 280 279 279 278 278 278 278 278 278 278 278 277 278 278 278 278 278 279 279 280 280 281 281 281 281 281 280 280 280 280
257 256 255 255 255 255 256 256 256 256 257 258 258 259 261 261 261 261 260 261 261 261 262 262 263 263 264 264 264 264 264 264 265 266 267 268 269 269 270 271 271 272 273 273 274 274 275 275 276 277 278 279 279 279 279 278 278 277 277 278 278 278 279 279 279 278 278 278 278 278 278 279 279 279 279 279 280 280 280 280 280 279 279 279 279
257 256 256 255 255 255 255 255 255 256 257 257 258 259 260 260 260 260 259 259 260 260 261 261 262 262 263 263 264 264 264 264 264 265 267 268 268 269 270 271 271 272 273 274 274 275 275 276 277 278 279 279 279 279 277 276 275 276 276 277 278 279 280 280 280 280 279 278 278 278 278 278 278 278 278 278 278 278 279 278 278 278 279 279 279
259 257 256 255 254 254 254 254 254 255 256 257 257 258 259 259 259 259 259 259 259 260 260 261 261 261 262 263 264 264 264 264 264 265 265 267 268 269 270 270 271 272 273 273 274 275 275 276 277 278 278 278 278 276 275 274 274 275 277 278 280 281 281 281 281 280 280 279 279 278 278 278 278 278 277 277 277 277 277 277 277 277 278 278 279
261 260 258 257 256 255 254 253 253 254 255 256 256 256 257 257 257 257 257 258 258 258 259 260 260 261 261 262 263 263 264 264 264 265 265 266 267 268 269 270 271 272 272 273 274 275 276 276 277 277 277 277 276 275 274 274 275 277 279 281 282 282 282 281 281 281 280 280 279 279 279 278 278 277 277 276 276 276 277 277 277 277 277 278 279
262 261 259 258 257 257 256 255 254 253 253 254 255 255 255 255 256 256 256 257 257 257 258 258 259 259 260 261 261 262 263 264 264 265 266 267 267 268 269 270 271 272 273 274 274 275 276 276 277 276 275 274 274 274 275 276 277 278 280 281 282 282 282 281 281 281 280 280 280 280 280 279 278 277 277 276 277 277 277 278 278 278 278 279 280
262 262 261 259 257 257 257 257 256 255 254 253 254 255 256 256 255 255 256 256 257 257 257 258 258 258 259 260 261 261 262 263 264 265 265 266 267 268 269 270 271 272 273 273 274 275 275 276 275 275 275 274 274 275 276 277 279 280 282 282 282 281 281 281 280 280 281 281 281 281 280 280 279 278 278 278 278 278 279 279 279 279 279 279 280
263 263 263 262 260 258 257 257 257 257 257 256 255 255 256 256 256 256 256 256 256 257 257 258 259 259 259 260 260 261 262 262 263 264 265 266 267 268 269 270 271 272 273 273 274 274 274 274 273 273 274 275 276 277 278 280 281 283 283 283 282 281 280 280 280 281 282 282 282 282 282 281 281 281 280 280 280 280 280 280 280 279 279 279 280
264 264 264 264 263 261 260 259 258 259 259 258 258 258 258 257 257 256 256 256 256 257 257 258 259 259 260 260 261 261 262 262 263 264 265 266 267 268 269 270 271 272 273 273 273 273 273 273 272 272 274 276 278 280 281 282 283 284 284 283 282 281 280 281 281 283 283 284 284 284 283 283 283 282 282 281 282 282 281 281 280 280 280 280 280
263 263 263 263 263 263 262 260 260 259 259 259 259 259 259 259 258 257 257 257 257 257 257 257 258 259 259 259 260 261 262 263 264 265 266 267 268 269 270 271 271 272 273 273 273 274 274 274 274 275 277 279 281 282 282 283 284 284 283 282 281 281 281 282 283 284 284 284 284 284 284 283 283 282 282 282 282 282 281 281 281 281 282 282 282
261 261 261 262 262 262 261 261 260 260 259 259 259 259 259 259 260 259 259 259 259 259 259 258 258 258 259 259 260 262 262 263 264 265 266 267 268 269 270 271 272 273 274 275 275 275 275 276 277 278 280 281 283 283 283 284 284 283 282 282 281 282 282 283 284 285 285 285 285 284 284 284 284 283 283 283 283 283 283 283 282 282 282 282 282
259 260 260 260 261 261 261 261 260 260 259 259 259 259 259 259 260 260 260 261 261 262 262 261 261 261 261 261 263 264 265 266 266 267 267 268 269 270 272 273 274 275 276 277 277 277 278 279 280 281 282 283 284 284 284 284 283 282 282 281 282 282 283 284 285 286 285 285 285 286 286 285 285 285 284 284 284 284 284 284 283 282 281 280 280
257 258 259 259 260 260 260 261 261 260 260 259 259 259 259 259 260 260 260 261 261 262 262 263 264 264 265 265 266 267 267 268 269 269 269 270 271 272 274 275 276 277 278 278 278 279 280 281 282 282 283 283 284 284 284 283 283 282 282 283 283 284 285 285 286 286 285 286 286 287 287 286 286 286 285 285 285 284 284 284 284 283 281 280 280
254 255 256 257 258 258 259 259 260 260 260 260 259 259 259 259 259 259 260 260 260 261 261 262 263 264 265 266 267 267 268 269 270 271 271 272 273 274 276 277 277 278 278 278 279 279 280 281 281 282 283 283 283 283 283 282 282 283 284 284 285 286 286 287 286 285 286 286 287 287 287 287 287 287 287 286 285 285 284 284 283 282 282 281 280
252 253 254 255 255 256 257 257 258 259 260 260 259 259 259 259 259 259 259 259 259 259 260 260 261 262 263 265 266 267 269 270 271 272 272 273 274 275 276 276 277 277 277 278 278 279 280 280 281 282 282 283 283 282 282 283 283 284 285 285 286 287 287 287 286 286 287 288 288 287 287 287 287 287 287 286 286 285 285 284 283 283 282 281 281
251 251 251 252 253 254 255 256 256 257 258 259 259 258 258 258 258 258 259 259 259 259 259 260 260 261 262 264 265 266 267 268 269 270 271 272 273 274 274 274 275 275 276 277 277 278 279 280 281 282 282 281 281 281 282 283 284 285 286 286 287 287 287 287 287 288 289 289 288 288 288 287 287 287 286 286 286 285 285 284 284 284 283 281 280
251 251 250 251 252 252 253 254 255 256 257 258 258 258 258 258 258 258 259 259 259 259 260 260 261 262 262 263 264 265 266 267 268 269 269 270 271 271 272 273 273 274 275 276 277 277 278 279 280 280 280 280 280 281 281 282 283 285 285 286 287 287 287 287 288 288 289 288 288 288 287 287 286 286 286 286 286 286 286 285 285 285 285 283 281
254 253 252 252 252 252 252 252 253 254 255 257 258 258 258 257 257 258 258 259 259 260 260 260 261 262 263 263 264 264 265 266 267 267 268 269 269 270 271 271 272 273 274 275 275 276 276 277 277 277 278 278 279 280 281 282 283 284 285 286 286 287 287 287 288 288 288 288 287 287 287 286 285 285 285 286 286 286 286 287 287 287 286 285 284
257 255 254 253 253 252 252 252 252 252 253 255 256 257 257 257 257 257 258 258 259 259 260 260 261 262 262 263 263 264 265 265 266 267 267 268 268 268 269 270 270 271 272 273 274 274 275 275 275 276 276 277 278 279 280 282 282 283 284 285 285 285 286 286 287 287 287 286 286 286 285 285 284 285 286 286 287 287 287 288 288 288 288 287 287
259 257 256 255 254 253 252 252 252 252 252 253 254 255 256 256 257 257 257 257 257 258 259 260 260 261 262 262 263 264 264 264 265 265 266 266 267 267 267 268 269 269 270 271 272 273 274 274 274 274 275 276 278 279 280 281 282 282 283 283 284 284 284 285 285 285 285 285 285 284 284 284 285 285 286 287 288 288 288 289 289 289 289 289 290
258 258 257 256 255 253 253 252 252 252 252 253 253 254 255 256 256 256 257 257 257 257 258 258 259 260 260 261 262 262 263 263 263 264 265 265 265 265 266 266 267 268 269 270 272 272 273 273 273 274 275 277 278 279 279 280 281 281 281 282 282 282 283 283 284 284 284 284 283 283 284 284 286 287 287 288 288 289 289 290 290 290 291 292 292
257 256 256 256 255 254 253 252 252 252 252 252 253 254 254 255 256 257 257 257 257 257 257 257 258 258 259 259 260 261 261 262 263 263 264 264 264 265 265 265 266 267 268 270 271 271 272 272 273 274 275 276 277 277 278 278 279 279 280 280 281 282 282 282 283 282 282 282 283 283 284 286 287 287 288 288 289 289 290 290 291 292 292 293 293
257 256 256 256 255 255 254 253 252 252 252 252 252 253 254 255 255 256 256 257 257 257 257 257 257 258 258 258 259 260 260 261 262 262 263 263 263 263 263 264 265 266 268 269 269 270 270 271 272 273 274 274 275 276 276 277 278 279 279 280 280 281 281 281 281 281 282 282 283 284 285 286 287 287 288 288 289 290 290 291 291 292 293 293 293
258 257 257 256 256 255 255 254 253 252 252 252 252 252 253 253 254 255 255 255 256 256 257 257 257 257 257 258 258 259 260 260 261 261 262 262 262 262 263 264 264 265 266 267 268 268 269 270 271 272 273 273 274 275 276 277 278 279 279 280 280 280 280 281 281 281 282 283 284 285 286 286 287 288 288 289 290 291 291 292 292 292 292 292 292
259 258 257 257 256 256 256 255 254 253 252 252 252 252 252 252 252 253 254 254 254 255 255 256 256 256 256 257 257 258 258 259 259 260 260 261 262 262 263 263 264 264 265 266 266 267 268 269 271 272 272 273 274 275 276 277 278 278 279 279 279 279 280 280 281 282 283 284 285 286 286 287 287 288 289 290 291 291 292 292 292 292 292 291 290
260 259 258 258 257 256 256 255 255 254 253 252 252 251 251 251 251 251 252 252 253 253 253 254 254 254 255 256 256 256 257 257 258 259 260 261 262 262 262 262 262 263 264 265 266 266 268 269 270 271 272 273 274 274 275 276 276 277 277 278 278 279 280 280 281 282 283 284 285 286 286 287 288 289 290 290 291 291 292 292 292 291 291 290 289
261 260 259 258 258 257 257 256 255 255 254 253 252 251 251 251 251 250 250 251 251 251 251 251 252 253 254 254 255 255 256 256 257 258 259 260 261 262 262 262 262 261 262 263 264 266 267 268 269 270 271 272 273 274 274 275 275 276 276 277 278 279 280 281 281 282 283 284 284 285 286 286 287 288 289 290 290 291 291 291 291 291 290 289 288
264 262 261 259 258 257 257 256 256 255 255 255 254 252 251 251 251 251 251 250 250 250 249 249 250 252 253 253 254 254 255 255 256 257 258 258 260 260 261 261 261 261 261 262 263 264 265 267 268 270 271 271 272 272 273 273 274 275 276 277 278 279 279 280 281 281 282 283 283 284 285 285 286 287 288 289 290 290 290 290 290 290 290 289 288
267 265 264 262 261 259 258 257 256 255 255 255 255 254 253 252 251 251 251 251 250 250 249 249 250 250 251 252 253 253 254 254 255 256 257 257 258 259 260 260 261 261 261 262 262 263 264 265 266 268 269 269 270 270 271 272 273 275 276 276 277 278 279 279 280 281 281 282 283 283 284 286 287 288 288 289 290 290 290 290 290 290 289 289 288
267 266 265 264 263 262 260 258 256 255 254 254 255 254 254 253 252 251 251 251 250 249 249 250 250 250 250 251 252 253 253 254 254 255 256 256 257 257 258 259 260 260 261 261 262 263 263 264 264 265 266 267 268 269 270 271 272 273 274 275 276 277 278 279 280 281 281 282 283 284 285 286 288 288 289 289 289 289 289 289 289 289 289 288 287
267 266 265 264 264 263 261 260 258 256 254 254 254 254 253 253 252 251 250 250 250 249 249 249 249 249 249 250 250 251 252 253 254 255 256 256 256 256 257 257 258 259 260 261 262 262 263 263 264 264 265 266 267 268 269 270 271 272 273 274 275 276 277 278 279 280 281 282 284 285 286 287 288 288 288 288 288 288 289 290 290 289 288 286 285
266 265 265 265 264 263 263 261 260 258 255 254 253 253 253 253 253 251 250 249 249 249 249 249 249 249 249 249 250 250 251 252 252 254 255 256 256 256 256 257 257 258 259 261 262 262 263 263 263 264 265 266 267 268 269 270 271 272 273 274 275 276 277 278 279 280 282 283 284 285 286 287 287 287 287 287 288 289 289 290 289 288 286 285 283
267 266 265 264 264 264 263 262 262 260 258 256 254 253 252 253 253 253 252 250 249 249 249 249 249 249 250 250 250 250 250 250 251 252 254 255 256 257 257 257 257 258 258 259 260 261 262 263 264 265 266 267 268 269 270 271 272 272 273 274 275 276 276 278 279 280 282 283 284 285 286 286 286 287 287 288 289 290 290 289 288 286 285 284 282
269 268 267 265 264 263 262 261 261 260 258 257 255 254 252 251 252 252 252 252 250 249 249 249 249 250 250 251 251 251 251 250 251 252 254 255 256 257 257 257 257 257 258 258 259 260 261 263 264 265 266 267 268 269 270 271 272 272 273 273 274 275 276 277 278 280 281 283 284 285 285 286 286 287 288 289 289 289 289 288 287 285 284 283 282
270 269 268 267 265 263 261 260 259 259 258 257 256 255 254 252 251 251 252 252 252 251 250 250 250 251 252 252 252 252 252 252 251 252 254 255 256 257 258 258 258 258 259 259 259 260 261 262 263 264 265 266 268 269 270 270 271 271 272 272 273 274 276 277 278 280 282 283 284 285 285 286 286 287 288 289 289 289 288 287 286 284 283 283 282
269 268 268 268 267 266 264 262 260 259 258 257 256 256 255 255 254 253 252 252 252 251 250 250 250 251 252 254 254 254 253 253 253 253 254 255 256 257 258 259 259 259 259 259 259 260 261 262 263 264 265 267 268 269 269 270 270 271 271 272 273 275 276 278 279 281 282 283 284 284 285 285 286 287 288 288 288 288 287 286 285 284 283 283 283
267 267 267 267 267 267 267 265 263 261 260 258 258 257 257 256 256 255 254 253 252 252 251 250 249 250 251 253 254 255 255 254 254 255 255 256 257 257 258 258 259 259 260 260 260 261 261 262 263 264 265 266 267 268 269 269 270 271 272 273 274 276 277 279 280 281 282 283 283 284 284 285 286 287 287 288 288 287 286 285 284 283 283 284 284
266 266 266 266 266 266 266 266 265 264 262 261 259 258 258 257 257 256 255 254 253 252 251 250 249 249 250 251 252 254 255 255 256 256 256 256 257 257 258 258 259 260 261 261 262 262 262 263 263 264 265 266 267 268 268 269 270 272 273 274 275 277 278 279 280 281 282 283 283 284 285 285 286 287 287 287 287 287 286 285 284 284 284 284 284
265 265 266 266 266 265 265 266 266 265 264 263 262 260 259 259 258 258 257 256 255 254 252 251 250 250 249 249 250 252 253 254 255 256 256 256 257 257 258 259 259 260 261 262 263 263 263 264 264 265 266 266 267 268 269 270 271 272 274 275 276 277 278 279 280 281 282 283 283 284 284 285 286 286 287 287 286 286 285 285 285 285 285 285 284
265 265 265 265 265 265 265 265 265 265 264 264 263 262 261 260 260 259 258 258 257 256 255 254 253 252 251 251 251 251 252 253 254 255 256 257 257 258 259 260 260 261 262 262 263 264 264 265 265 266 266 267 268 269 270 271 272 273 274 275 276 278 279 279 280 281 281 282 283 283 284 285 286 286 286 285 285 285 285 284 284 284 284 284 284
266 266 266 265 265 265 265 265 264 263 263 263 263 262 262 261 261 260 260 259 258 258 257 256 256 255 254 254 253 253 253 253 254 256 257 257 258 259 260 260 261 262 262 263 264 264 265 265 266 266 267 267 268 269 270 271 272 273 274 276 277 278 278 279 280 280 281 281 282 283 284 284 285 285 284 284 284 284 283 283 283 283 283 284 285
268 268 267 267 266 266 265 265 264 263 263 262 262 262 261 261 261 260 260 260 260 259 259 258 257 257 256 256 256 255 255 256 256 257 257 258 259 259 260 260 261 261 262 263 263 264 265 265 266 266 267 267 268 269 270 271 272 274 275 276 277 278 278 279 279 280 281 282 282 282 283 283 284 284 284 284 283 282 282 281 282 282 283 284 285
268 268 268 268 267 266 266 265 265 264 264 263 262 262 261 261 261 260 260 260 260 260 259 259 259 258 258 258 258 257 257 257 257 257 258 258 259 259 260 260 260 261 261 262 262 263 263 264 265 265 266 267 268 270 271 272 273 274 275 276 277 278 278 279 280 280 281 281 281 282 282 283 283 284 284 284 283 282 282 282 282 283 284 285 286
269 268 268 268 268 267 266 265 265 264 264 264 263 263 262 261 260 260 259 259 258 258 258 258 258 258 258 258 258 258 257 257 257 256 257 257 257 258 258 259 259 259 260 260 261 261 262 263 264 265 267 268 269 271 272 273 274 275 276 277 278 278 279 280 280 280 281 281 282 282 283 284 284 284 284 284 283 283 283 283 283 284 285 285 286
269 268 268 268 267 267 266 265 265 264 264 263 263 263 262 261 261 260 259 259 258 258 258 258 258 258 258 258 257 257 257 256 256 256 256 256 256 257 257 257 258 259 259 260 261 262 263 264 265 267 268 269 271 272 273 274 275 276 277 277 278 278 279 279 280 281 281 282 283 283 283 283 283 283 283 283 283 283 283 283 284 284 285 286 286
269 268 267 267 267 267 266 265 265 264 263 262 262 262 261 261 260 260 259 259 258 258 258 258 258 257 257 257 257 257 257 257 257 257 257 257 258 258 259 259 260 260 261 262 263 264 265 266 267 268 269 271 272 273 274 275 275 276 276 277 277 278 278 279 280 281 281 282 282 282 282 282 282 282 282 282 282 282 283 283 284 285 285 286 286
269 268 267 267 266 266 266 265 265 264 263 262 262 261 261 260 259 259 259 258 258 258 257 257 257 257 257 257 257 257 258 258 259 259 259 259 260 260 261 262 262 263 264 264 265 266 267 268 269 270 270 271 272 273 273 274 274 275 275 276 277 277 278 279 280 280 280 280 281 281 281 281 281 281 281 281 282 282 283 284 285 285 285 285 285
Height
10513 10514 10515 10518 10520 10521 10521 10521 10522 10524 10527 10529 10530 10529 10527 10527 10526 10524 10524 10525 10526 10526 10527 10527 10527 10527 10528 10528 10527 10526 10524 10523 10522 10521 10521 10521 10519 10518 10517 10518 10518 10519 10520 10520 10519 10518 10519 10518 10517 10515 10514 10513 10512 10510 10510 10509 10507 10506 10504 10503 10501 10498 10495 10491 10486 10480 10476 10475 10474 10470 10465 10460 10455 10454 10453 10450 10446 10443 10441 10439 10438 10435 10432 10428 10424
10497 10498 10500 10502 10504 10506 10507 10508 10509 10509 10510 10510 10510 10510 10509 10509 10509 10508 10510 10510 10510 10512 10513 10512 10512 10512 10513 10514 10514 10513 10511 10509 10508 10507 10507 10506 10506 10505 10504 10503 10503 10503 10504 10505 10504 10504 10504 10504 10503 10502 10500 10499 10497 10496 10496 10495 10493 10491 10489 10487 10485 10483 10480 10477 10473 10468 10463 10460 10459 10458 10455 10450 10444 10440 10439 10438 10434 10430 10428 10425 10424 10421 10418 10415 10412
10481 10482 10483 10485 10487 10488 10490 10491 10491 10491 10492 10492 10491 10491 10491 10491 10492 10493 10494 10494 10495 10497 10497 10496 10496 10496 10498 10499 10500 10498 10496 10495 10493 10493 10493 10492 10492 10491 10490 10489 10488 10488 10487 10488 10489 10489 10489 10488 10488 10487 10486 10484 10482 10481 10481 10480 10478 10476 10474 10472 10470 10467 10465 10462 10459 10456 10451 10446 10444 10444 10443 10439 10433 10428 10425 10424 10422 10419 10417 10414 10411 10407 10403 10400 10397
10464 10464 10465 10466 10467 10469 10471 10470 10470 10472 10474 10474 10473 10473 10472 10473 10474 10476 10478 10479 10481 10481 10480 10480 10480 10481 10482 10483 10482 10481 10480 10479 10478 10478 10477 10478 10478 10477 10476 10475 10474 10472 10471 10472 10473 10473 10473 10473 10472 10472 10471 10469 10467 10466 10466 10465 10463 10461 10459 10457 10455 10453 10450 10448 10445 10442 10439 10434 10430 10428 10427 10425 10421 10415 10411 10410 10408 10405 10404 10402 10399 10394 10389 10385 10383
10445 10446 10448 10450 10449 10450 10450 10450 10451 10453 10454 10455 10456 10455 10454 10456 10457 10459 10460 10463 10464 10464 10463 10464 10465 10466 10466 10465 10464 10464 10464 10464 10463 10462 10462 10462 10463 10462 10462 10461 10460 10458 10456 10456 10456 10456 10456 10457 10457 10457 10455 10453 10452 10451 10450 10449 10447 10445 10444 10442 10440 10437 10435 10432 10430 10428 10425 10421 10416 10413 10411 10409 10406 10401 10396 10394 10393 10390 10388 10386 10383 10379 10375 10371 10368
10426 10427 10430 10433 10434 10433 10432 10431 10432 10433 10435 10437 10439 10438 10439 10440 10441 10442 10443 10444 10445 10446 10447 10448 10449 10449 10448 10447 10447 10448 10448 10449 10448 10447 10446 10446 10446 10446 10446 10446 10445 10444 10441 10440 10441 10441 10441 10441 10441 10441 10440 10438 10437 10436 10435 10433 10432 10430 10429 10427 10424 10421 10418 10416 10413 10411 10408 10405 10402 10398 10394 10391 10389 10385 10381 10378 10378 10376 10373 10370 10366 10362 10359 10357 10354
10408 10410 10412 10415 10417 10417 10415 10413 10413 10415 10417 10420 10422 10423 10425 10425 10425 10426 10426 10426 10428 10430 10431 10431 10432 10431 10430 10430 10430 10431 10431 10433 10434 10433 10431 10430 10430 10430 10431 10431 10430 10429 10427 10425 10425 10426 10425 10425 10426 10425 10424 10422 10421 10420 10419 10418 10416 10415 10414 10412 10409 10405 10401 10399 10396 10393 10391 10389 10385 10382 10378 10374 10371 10369 10366 10363 10362 10361 10359 10357 10353 10347 10343 10341 10338
10390 10393 10395 10397 10399 10398 10397 10396 10397 10399 10401 10403 10406 10408 10409 10409 10409 10409 10409 10410 10412 10413 10413 10414 10414 10414 10414 10413 10413 10413 10414 10415 10417 10417 10416 10415 10415 10415 10415 10415 10414 10414 10412 10410 10409 10410 10410 10410 10410 10409 10407 10406 10406 10405 10403 10402 10401 10401 10399 10396 10392 10388 10385 10382 10379 10377 10375 10372 10368 10365 10361 10357 10354 10352 10350 10348 10348 10346 10344 10342 10341 10337 10331 10327 10323
10371 10375 10377 10378 10379 10379 10379 10380 10382 10384 10386 10387 10389 10390 10391 10392 10392 10392 10393 10394 10395 10396 10397 10398 10397 10397 10397 10396 10396 10396 10396 10397 10398 10399 10399 10399 10399 10400 10400 10399 10398 10398 10397 10395 10395 10394 10394 10394 10393 10392 10391 10391 10391 10389 10386 10386 10386 10385 10383 10380 10376 10372 10369 10366 10363 10361 10359 10356 10352 10348 10345 10342 10339 10337 10335 10333 10332 10331 10329 10327 10326 10323 10319 10315 10311
10352 10354 10358 10360 10361 10361 10361 10362 10364 10367 10370 10371 10372 10373 10374 10374 10375 10376 10377 10378 10379 10380 10381 10381 10381 10381 10381 10380 10380 10381 10381 10381 10381 10381 10381 10381 10382 10383 10385 10385 10384 10382 10381 10381 10380 10379 10377 10377 10376 10375 10375 10375 10374 10372 10370 10370 10370 10369 10366 10363 10359 10356 10353 10350 10347 10346 10343 10340 10337 10333 10330 10327 10323 10321 10320 10318 10317 10315 10314 10313 10311 10308 10305 10303 10299
10334 10334 10336 10340 10343 10344 10344 10345 10347 10350 10353 10355 10356 10356 10356 10357 10359 10361 10362 10362 10363 10363 10363 10364 10365 10366 10365 10365 10365 10365 10366 10366 10366 10365 10364 10364 10365 10367 10369 10369 10368 10368 10367 10366 10365 10362 10361 10360 10359 10358 10358 10357 10356 10355 10354 10353 10352 10351 10348 10346 10343 10340 10337 10334 10332 10330 10329 10326 10323 10319 10315 10312 10309 10306 10305 10304 10302 10301 10299 10298 10296 10294 10291 10289 10289
10315 10316 10316 10319 10324 10326 10327 10328 10330 10332 10334 10337 10339 10339 10340 10342 10344 10345 10346 10346 10346 10346 10347 10348 10350 10350 10350 10350 10350 10350 10350 10350 10350 10349 10349 10349 10350 10352 10353 10353 10353 10353 10352 10351 10349 10346 10345 10343 10342 10341 10340 10340 10339 10338 10337 10335 10334 10332 10331 10329 10326 10323 10321 10319 10317 10316 10314 10312 10309 10304 10300 10297 10295 10293 10291 10290 10289 10287 10285 10283 10279 10278 10277 10275 10274
10297 10299 10299 10300 10303 10307 10309 10311 10313 10314 10316 10319 10321 10322 10323 10325 10327 10328 10329 10329 10329 10331 10332 10333 10334 10334 10334 10334 10334 10334 10334 10334 10334 10335 10334 10334 10334 10336 10338 10338 10338 10337 10337 10335 10332 10329 10328 10325 10323 10323 10323 10323 10322 10320 10319 10318 10316 10315 10314 10312 10309 10306 10304 10303 10301 10301 10299 10297 10294 10289 10285 10283 10282 10279 10277 10276 10276 10274 10271 10269 10264 10262 10262 10260 10256
10279 10281 10282 10282 10284 10287 10289 10291 10294 10296 10298 10301 10303 10305 10306 10307 10308 10310 10311 10312 10313 10314 10316 10317 10317 10317 10317 10317 10317 10317 10317 10318 10320 10319 10318 10318 10319 10321 10322 10322 10322 10322 10320 10318 10315 10312 10309 10306 10306 10307 10308 10307 10305 10302 10301 10301 10300 10299 10297 10295 10293 10290 10289 10288 10287 10286 10284 10282 10280 10275 10270 10269 10268 10266 10264 10263 10262 10260 10257 10255 10251 10247 10247 10245 10238
10262 10263 10264 10264 10265 10267 10269 10271 10273 10276 10279 10281 10284 10286 10287 10288 10289 10291 10293 10294 10295 10296 10297 10299 10300 10299 10299 10299 10299 10300 10302 10304 10305 10305 10304 10304 10305 10306 10307 10307 10307 10306 10305 10302 10299 10295 10291 10290 10292 10293 10292 10291 10287 10284 10283 10283 10283 10283 10281 10279 10276 10275 10273 10272 10272 10271 10268 10266 10264 10260 10256 10254 10252 10251 10250 10248 10246 10244 10242 10239 10235 10234 10235 10231 10223
10246 10245 10246 10247 10247 10249 10250 10251 10252 10255 10258 10261 10264 10266 10268 10269 10271 10272 10275 10276 10277 10279 10279 10280 10280 10280 10280 10281 10282 10284 10287 10289 10291 10291 10289 10290 10291 10292 10292 10292 10291 10290 10289 10286 10282 10277 10276 10277 10279 10278 10277 10274 10270 10266 10266 10266 10266 10266 10265 10262 10261 10259 10257 10257 10256 10254 10252 10250 10247 10244 10242 10239 10237 10236 10234 10233 10231 10228 10225 10221 10217 10217 10219 10217 10211
10230 10229 10229 10230 10230 10231 10231 10232 10232 10233 10237 10242 10245 10247 10249 10251 10253 10255 10257 10260 10261 10263 10263 10263 10263 10263 10264 10264 10266 10268 10271 10275 10275 10275 10273 10274 10276 10278 10277 10276 10275 10275 10272 10268 10264 10262 10263 10264 10264 10263 10260 10257 10254 10251 10251 10250 10249 10248 10247 10246 10245 10244 10242 10241 10240 10238 10236 10234 10231 10229 10227 10224 10222 10220 10218 10217 10214 10211 10209 10206 10202 10200 10201 10200 10198
10213 10213 10213 10213 10214 10214 10214 10214 10214 10214 10217 10222 10226 10230 10232 10234 10236 10237 10240 10243 10245 10246 10247 10247 10247 10248 10248 10249 10250 10252 10256 10259 10259 10259 10258 10257 10261 10264 10262 10260 10260 10257 10253 10250 10248 10248 10249 10250 10249 10247 10243 10240 10238 10237 10235 10233 10232 10232 10231 10230 10229 10227 10226 10225 10224 10221 10219 10218 10216 10214 10211 10208 10206 10204 10201 10198 10195 10193 10191 10190 10187 10185 10185 10183 10182
10195 10197 10198 10198 10197 10197 10197 10198 10198 10197 10199 10203 10208 10212 10215 10217 10219 10220 10222 10225 10227 10229 10230 10230 10231 10232 10233 10235 10237 10238 10241 10243 10243 10243 10243 10242 10246 10250 10248 10245 10243 10239 10236 10234 10233 10233 10234 10234 10233 10231 10227 10224 10223 10222 10219 10217 10217 10216 10215 10214 10213 10211 10210 10208 10207 10205 10204 10202 10201 10198 10195 10193 10190 10187 10183 10180 10176 10174 10173 10171 10170 10170 10170 10169 10165
10177 10179 10182 10182 10181 10181 10181 10182 10183 10183 10183 10186 10190 10195 10198 10200 10202 10204 10205 10208 10210 10212 10213 10213 10214 10216 10218 10220 10223 10225 10227 10227 10227 10228 10229 10229 10233 10236 10233 10229 10227 10223 10219 10217 10217 10219 10219 10219 10218 10215 10210 10207 10207 10207 10206 10205 10204 10201 10199 10198 10197 10195 10194 10192 10190 10189 10188 10187 10184 10182 10179 10177 10174 10170 10166 10162 10159 10157 10155 10152 10152 10152 10152 10153 10151
10158 10161 10164 10165 10164 10164 10165 10166 10168 10169 10168 10169 10173 10178 10182 10185 10186 10188 10189 10191 10194 10196 10197 10197 10198 10200 10202 10205 10208 10210 10212 10212 10212 10213 10214 10216 10220 10221 10218 10214 10210 10206 10203 10202 10203 10205 10205 10204 10202 10198 10194 10192 10192 10192 10194 10194 10192 10189 10185 10182 10181 10181 10179 10176 10173 10173 10174 10172 10168 10166 10164 10161 10158 10153 10149 10146 10143 10140 10138 10135 10134 10134 10133 10134 10135
10139 10144 10147 10147 10147 10148 10149 10151 10153 10154 10154 10154 10156 10159 10164 10167 10170 10172 10174 10175 10177 10180 10181 10182 10182 10183 10185 10188 10191 10193 10195 10196 10196 10196 10197 10200 10204 10205 10202 10198 10193 10190 10188 10188 10190 10190 10189 10189 10187 10183 10180 10179 10178 10178 10179 10179 10179 10177 10173 10169 10168 10168 10165 10161 10159 10159 10159 10156 10153 10151 10148 10145 10142 10137 10133 10131 10127 10124 10122 10120 10117 10116 10115 10116 10115
10118 10124 10127 10128 10129 10131 10133 10135 10137 10138 10139 10139 10140 10142 10144 10148 10152 10155 10157 10159 10161 10162 10164 10166 10166 10167 10167 10169 10172 10176 10179 10180 10180 10179 10180 10183 10187 10190 10187 10182 10178 10175 10174 10174 10174 10173 10173 10173 10171 10168 10166 10165 10165 10164 10164 10165 10165 10164 10160 10157 10156 10154 10150 10147 10146 10145 10143 10141 10139 10136 10132 10129 10126 10122 10119 10116 10112 10109 10107 10106 10102 10099 10098 10099 10096
10100 10105 10107 10108 10110 10113 10115 10118 10120 10122 10123 10123 10124 10126 10127 10130 10133 10137 10140 10143 10145 10147 10148 10149 10151 10152 10152 10153 10156 10160 10163 10165 10164 10163 10164 10167 10171 10174 10172 10168 10164 10161 10159 10159 10159 10158 10158 10157 10154 10151 10151 10152 10151 10151 10150 10150 10151 10150 10147 10144 10142 10139 10136 10135 10133 10131 10128 10127 10124 10120 10116 10114 10112 10108 10105 10102 10097 10094 10093 10091 10088 10085 10083 10083 10080
10083 10086 10087 10089 10091 10093 10097 10100 10102 10103 10104 10105 10107 10109 10110 10112 10115 10119 10122 10126 10130 10132 10133 10134 10136 10137 10138 10140 10141 10143 10146 10147 10147 10148 10149 10151 10155 10158 10157 10153 10149 10145 10144 10145 10144 10142 10142 10140 10137 10136 10137 10138 10137 10136 10136 10136 10136 10135 10133 10130 10127 10124 10123 10122 10119 10116 10114 10111 10108 10104 10100 10099 10097 10094 10090 10087 10082 10080 10080 10077 10074 10070 10068 10068 10066
10065 10068 10069 10070 10072 10075 10078 10082 10083 10084 10085 10087 10089 10091 10093 10096 10099 10102 10105 10108 10111 10114 10117 10119 10120 10122 10123 10125 10125 10126 10128 10130 10130 10131 10133 10135 10138 10141 10141 10138 10133 10130 10129 10130 10129 10126 10125 10124 10122 10122 10124 10124 10123 10122 10122 10121 10121 10120 10117 10115 10112 10110 10109 10107 10104 10101 10099 10096 10093 10090 10086 10085 10082 10079 10075 10072 10068 10065 10066 10065 10061 10057 10055 10054 10053
10047 10050 10051 10052 10055 10058 10060 10064 10066 10067 10068 10071 10073 10075 10078 10080 10082 10086 10090 10091 10093 10096 10099 10102 10103 10105 10107 10108 10108 10110 10112 10114 10115 10116 10117 10119 10121 10122 10123 10122 10119 10116 10115 10115 10114 10111 10109 10108 10108 10109 10112 10112 10110 10108 10106 10106 10106 10104 10101 10099 10098 10095 10094 10092 10089 10086 10084 10081 10078 10076 10073 10071 10068 10064 10061 10058 10054 10052 10052 10051 10049 10046 10043 10042 10041
10028 10032 10034 10034 10037 10041 10042 10045 10049 10050 10052 10054 10057 10060 10063 10064 10066 10070 10073 10074 10076 10079 10082 10084 10086 10088 10089 10091 10093 10094 10096 10098 10099 10099 10098 10099 10100 10102 10105 10107 10107 10104 10101 10099 10098 10095 10093 10092 10093 10096 10098 10097 10095 10093 10091 10091 10090 10087 10085 10083 10081 10079 10078 10076 10074 10071 10069 10067 10064 10062 10059 10056 10053 10050 10047 10043 10039 10037 10037 10036 10035 10034 10031 10030 10029
10011 10015 10018 10018 10020 10023 10024 10027 10031 10034 10036 10038 10040 10043 10046 10048 10050 10054 10056 10058 10060 10063 10066 10068 10071 10071 10071 10074 10077 10079 10081 10082 10081 10079 10080 10081 10083 10086 10090 10092 10093 10090 10085 10083 10082 10080 10079 10078 10079 10081 10081 10080 10079 10078 10077 10076 10074 10071 10069 10067 10064 10063 10062 10061 10059 10057 10055 10052 10050 10047 10044 10041 10038 10035 10033 10029 10025 10023 10022 10021 10020 10020 10018 10016 10016
9993 9998 10001 10001 10003 10004 10006 10010 10013 10016 10019 10022 10024 10027 10030 10031 10034 10038 10040 10041 10044 10047 10050 10052 10053 10054 10056 10059 10061 10063 10064 10065 10063 10062 10064 10065 10066 10068 10072 10075 10077 10076 10072 10068 10066 10066 10066 10065 10064 10064 10064 10064 10065 10064 10063 10061 10058 10055 10053 10050 10048 10048 10048 10046 10045 10043 10041 10038 10036 10033 10029 10026 10023 10021 10018 10016 10013 10009 10007 10007 10006 10005 10004 10003 10001
9974 9981 9983 9984 9985 9987 9989 9993 9996 9997 10000 10004 10006 10009 10013 10014 10017 10021 10023 10024 10027 10030 10033 10035 10036 10037 10040 10043 10045 10046 10047 10048 10047 10047 10048 10048 10048 10050 10053 10056 10060 10062 10060 10056 10053 10052 10052 10051 10049 10049 10049 10049 10050 10049 10047 10044 10041 10038 10036 10035 10035 10034 10033 10032 10030 10028 10026 10024 10021 10018 10015 10012 10010 10008 10006 10003 10000 9997 9994 9993 9992 9990 9989 9988 9986
9957 9964 9966 9966 9968 9970 9972 9976 9978 9979 9982 9984 9986 9990 9994 9996 9999 10002 10003 10005 10009 10012 10014 10017 10020 10023 10025 10027 10029 10030 10030 10031 10031 10031 10031 10032 10033 10033 10034 10038 10042 10044 10045 10044 10042 10040 10040 10039 10036 10035 10034 10034 10034 10032 10029 10026 10024 10023 10022 10021 10021 10019 10018 10017 10016 10014 10012 10010 10007 10004 10002 10000 9998 9996 9994 9990 9987 9984 9981 9980 9978 9976 9974 9973 9970
9941 9948 9949 9948 9951 9955 9957 9960 9961 9962 9964 9966 9967 9971 9975 9978 9981 9983 9983 9986 9991 9994 9997 10000 10004 10007 10009 10010 10011 10013 10014 10014 10015 10015 10015 10016 10017 10017 10018 10021 10024 10027 10030 10031 10028 10027 10028 10028 10025 10022 10020 10018 10016 10014 10012 10011 10010 10009 10008 10006 10005 10004 10003 10002 10001 9999 9997 9995 9993 9990 9988 9986 9984 9983 9981 9977 9974 9971 9969 9967 9965 9962 9959 9958 9956
9925 9930 9931 9931 9934 9938 9941 9943 9946 9948 9949 9950 9952 9954 9957 9960 9963 9965 9966 9969 9973 9977 9981 9983 9985 9989 9991 9992 9994 9996 9997 9998 9999 10000 9999 9999 10001 10001 10002 10005 10009 10012 10016 10016 10014 10014 10014 10013 10010 10007 10004 10001 10000 9999 9998 9998 9997 9995 9994 9992 9991 9990 9988 9987 9985 9984 9982 9979 9977 9975 9973 9972 9970 9969 9967 9963 9960 9957 9955 9954 9952 9949 9945 9943 9941
9910 9913 9913 9913 9916 9921 9924 9926 9929 9932 9935 9936 9937 9939 9941 9943 9946 9949 9951 9953 9956 9960 9964 9966 9968 9970 9973 9975 9978 9980 9981 9983 9984 9984 9983 9983 9984 9985 9987 9992 9997 10000 10002 10002 10000 9998 9997 9996 9993 9991 9989 9986 9986 9985 9984 9983 9983 9981 9980 9979 9978 9976 9974 9972 9970 9968 9966 9964 9962 9961 9959 9957 9956 9954 9952 9949 9946 9944 9942 9939 9938 9936 9932 9930 9927
9896 9898 9897 9897 9900 9905 9908 9909 9912 9916 9919 9922 9924 9926 9927 9928 9930 9934 9937 9939 9941 9944 9947 9949 9950 9952 9955 9959 9962 9964 9967 9969 9969 9967 9966 9966 9967 9969 9974 9980 9984 9986 9989 9989 9985 9980 9978 9976 9975 9974 9973 9972 9972 9971 9969 9969 9968 9967 9966 9965 9964 9962 9960 9958 9955 9953 9951 9950 9948 9947 9945 9943 9942 9940 9938 9936 9933 9931 9929 9927 9925 9922 9919 9916 9914
9881 9883 9883 9884 9886 9891 9894 9894 9896 9899 9903 9907 9910 9912 9913 9914 9915 9917 9921 9925 9928 9930 9931 9932 9935 9937 9940 9944 9947 9948 9951 9953 9953 9952 9951 9951 9952 9955 9962 9968 9971 9973 9976 9974 9967 9961 9959 9959 9959 9959 9959 9958 9957 9956 9955 9954 9954 9953 9952 9950 9949 9948 9945 9943 9941 9939 9937 9936 9935 9933 9931 9929 9928 9926 9924 9922 9920 9918 9915 9914 9912 9909 9905 9902 9899
9866 9868 9870 9871 9874 9878 9880 9881 9881 9883 9886 9890 9893 9895 9897 9900 9901 9903 9906 9909 9913 9916 9917 9919 9921 9924 9926 9928 9930 9932 9935 9938 9939 9939 9938 9938 9939 9942 9947 9952 9955 9957 9959 9956 9950 9946 9945 9945 9946 9946 9945 9944 9943 9942 9942 9942 9941 9939 9938 9936 9934 9933 9931 9929 9928 9926 9924 9923 9921 9920 9918 9915 9914 9912 9911 9909 9907 9905 9903 9900 9897 9895 9893 9889 9884
9853 9854 9856 9857 9860 9863 9866 9868 9869 9869 9872 9874 9876 9878 9881 9884 9887 9890 9893 9895 9898 9902 9905 9907 9908 9911 9912 9912 9914 9917 9921 9924 9927 9926 9924 9924 9925 9928 9932 9937 9939 9941 9942 9938 9933 9931 9931 9932 9933 9932 9931 9931 9930 9929 9929 9928 9927 9925 9923 9921 9920 9918 9917 9916 9915 9913 9912 9910 9907 9905 9904 9901 9900 9899 9897 9896 9895 9893 9890 9887 9883 9880 9879 9876 9872
9841 9841 9842 9843 9846 9849 9852 9855 9857 9858 9859 9860 9861 9863 9866 9870 9873 9877 9880 9883 9886 9889 9892 9894 9896 9897 9897 9897 9899 9902 9906 9909 9912 9911 9910 9911 9913 9916 9919 9922 9923 9923 9922 9919 9917 9917 9919 9920 9920 9919 9919 9918 9917 9916 9915 9914 9912 9910 9909 9907 9906 9905 9903 9903 9902 9900 9898 9896 9893 9891 9890 9888 9887 9886 9884 9883 9883 9880 9877 9874 9870 9867 9864 9861 9859
9829 9829 9830 9831 9833 9835 9837 9840 9843 9845 9847 9849 9849 9851 9853 9855 9858 9862 9866 9870 9873 9876 9878 9882 9884 9884 9884 9884 9885 9887 9890 9893 9896 9897 9897 9898 9900 9902 9903 9905 9905 9905 9904 9903 9903 9906 9907 9906 9906 9906 9906 9905 9903 9902 9901 9899 9897 9896 9894 9893 9892 9891 9890 9889 9888 9886 9884 9882 9880 9879 9877 9875 9874 9874 9872 9870 9868 9866 9863 9861 9858 9854 9851 9847 9845
9819 9819 9819 9820 9822 9823 9824 9825 9828 9831 9834 9836 9837 9839 9840 9842 9844 9848 9851 9854 9858 9861 9864 9867 9869 9871 9872 9872 9871 9872 9875 9878 9881 9883 9883 9883 9884 9885 9887 9889 9890 9889 9888 9889 9891 9892 9892 9892 9893 9892 9891 9891 9889 9888 9886 9885 9883 9882 9881 9879 9879 9878 9877 9876 9875 9873 9871 9869 9867 9866 9865 9863 9862 9861 9859 9857 9855 9852 9849 9847 9844 9840 9837 9834 9831
9809 9809 9809 9810 9812 9813 9813 9814 9816 9818 9820 9822 9824 9826 9828 9830 9832 9834 9836 9839 9841 9845 9848 9851 9854 9856 9857 9858 9858 9860 9863 9865 9866 9866 9867 9867 9868 9870 9872 9874 9875 9875 9875 9876 9877 9877 9878 9878 9878 9877 9877 9876 9875 9873 9872 9871 9870 9869 9867 9866 9865 9864 9864 9863 9862 9860 9858 9856 9854 9853 9852 9851 9850 9848 9846 9844 9842 9840 9837 9833 9830 9826 9824 9821 9819
9799 9799 9800 9800 9801 9802 9803 9804 9805 9806 9807 9809 9811 9813 9816 9818 9819 9821 9823 9825 9827 9830 9832 9834 9837 9839 9841 9843 9845 9848 9850 9850 9849 9850 9851 9853 9855 9856 9858 9860 9861 9862 9862 9863 9863 9863 9864 9864 9863 9863 9862 9861 9860 9859 9858 9857 9856 9855 9854 9852 9851 9851 9851 9850 9849 9847 9846 9844 9842 9841 9839 9838 9838 9836 9834 9832 9830 9828 9825 9821 9817 9815 9813 9810 9808
9789 9789 9790 9790 9791 9792 9793 9794 9795 9796 9797 9797 9799 9801 9802 9804 9806 9808 9810 9812 9813 9815 9817 9819 9821 9823 9825 9827 9830 9832 9834 9834 9835 9837 9839 9840 9841 9843 9844 9846 9847 9848 9848 9848 9848 9849 9849 9849 9848 9848 9847 9846 9846 9845 9844 9843 9843 9842 9840 9839 9839 9839 9838 9838 9836 9835 9834 9833 9831 9828 9827 9826 9825 9824 9822 9820 9818 9816 9813 9809 9806 9804 9802 9799 9797
9779 9778 9779 9780 9781 9782 9783 9783 9784 9785 9786 9787 9788 9789 9791 9792 9794 9796 9797 9799 9801 9802 9804 9806 9807 9808 9810 9812 9814 9817 9819 9820 9822 9824 9826 9827 9828 9830 9831 9832 9833 9833 9834 9834 9835 9835 9835 9834 9834 9834 9833 9832 9832 9832 9831 9831 9830 9829 9828 9828 9827 9827 9826 9825 9823 9822 9821 9821 9820 9818 9816 9814 9812 9810 9809 9808 9806 9804 9802 9798 9795 9793 9792 9789 9788
9769 9769 9769 9770 9770 9771 9773 9773 9773 9774 9775 9776 9778 9779 9780 9782 9783 9785 9786 9788 9789 9790 9791 9792 9793 9795 9797 9799 9802 9804 9806 9809 9811 9812 9813 9814 9815 9816 9817 9818 9819 9819 9820 9821 9821 9821 9821 9821 9821 9820 9819 9819 9819 9819 9818 9818 9818 9817 9817 9816 9815 9814 9813 9811 9810 9809 9809 9809 9808 9806 9804 9801 9799 9797 9796 9795 9793 9791 9789 9786 9784 9783 9781 9779 9778
9760 9760 9759 9760 9760 9761 9762 9763 9764 9764 9765 9766 9767 9768 9769 9771 9772 9774 9775 9776 9777 9778 9779 9780 9782 9784 9786 9788 9790 9793 9795 9797 9799 9800 9801 9802 9803 9804 9805 9805 9806 9807 9808 9808 9808 9809 9808 9808 9808 9808 9807 9807 9807 9806 9806 9806 9805 9805 9804 9802 9801 9800 9799 9798 9798 9798 9798 9796 9795 9792 9790 9787 9786 9784 9783 9781 9779 9778 9776 9775 9773 9772 9771 9769 9768
9751 9751 9751 9751 9751 9752 9753 9754 9755 9755 9756 9756 9757 9758 9759 9761 9762 9763 9765 9766 9767 9768 9769 9771 9772 9774 9775 9777 9780 9781 9783 9785 9787 9788 9789 9790 9791 9792 9793 9794 9794 9795 9795 9795 9796 9796 9796 9796 9796 9795 9795 9795 9794 9794 9794 9793 9792 9791 9790 9789 9788 9787 9787 9786 9786 9786 9784 9783 9780 9778 9777 9776 9775 9772 9770 9768 9766 9765 9764 9763 9763 9762 9761 9760 9758
9743 9743 9743 9743 9743 9743 9744 9744 9745 9746 9747 9748 9749 9750 9750 9752 9753 9754 9755 9756 9758 9759 9761 9762 9764 9765 9766 9767 9769 9770 9772 9774 9775 9777 9778 9779 9780 9781 9782 9782 9783 9783 9784 9784 9784 9784 9784 9784 9784 9783 9783 9783 9782 9781 9780 9780 9779 9778 9778 9777 9777 9776 9775 9775 9774 9773 9772 9770 9768 9766 9765 9764 9763 9760 9758 9756 9755 9754 9753 9752 9752 9752 9751 9750 9748
9736 9736 9735 9735 9735 9735 9735 9736 9737 9737 9738 9739 9740 9741 9742 9743 9744 9745 9746 9747 9748 9750 9751 9752 9753 9754 9756 9757 9758 9760 9762 9763 9765 9766 9767 9768 9769 9770 9770 9770 9771 9771 9771 9771 9772 9771 9771 9771 9771 9770 9770 9770 9769 9769 9768 9768 9767 9767 9767 9766 9765 9765 9764 9763 9762 9762 9761 9759 9757 9754 9753 9752 9749 9747 9745 9743 9743 9743 9742 9741 9741 9741 9741 9740 9738